Albuquerque Double Eagle, NM

4:27 AM MDT on August 17, 2017 (GMT -0600)
Double Eagle Ii

Weather History for KAEG - October, 2013

Change the Weather History Date:

Sunday, October 6, 2013

  Actual Average (KABQ) Record (KABQ)
Temperature  
Mean Temperature 52 °F -  
Max Temperature 66 °F 75 °F 87 °F (1956)
Min Temperature 37 °F 48 °F 29 °F (1915)
Degree Days  
Heating Degree Days 14    
Growing Degree Days 2 (Base 50)    
Moisture  
Dew Point 21 °F    
Average Humidity 38    
Maximum Humidity 51    
Minimum Humidity 14    
Precipitation  
Precipitation 0.00 in - - ()
Sea Level Pressure  
Sea Level Pressure 30.33 in    
Wind  
Wind Speed 9 mph (WNW)    
Max Wind Speed 15 mph    
Max Gust Speed 18 mph    
Visibility 10 miles    
Events      
Averages and records for this station are not official NWS values.
T = Trace of Precipitation, MM = Missing Value Source: NWS Daily Summary

Daily Weather History Graph

Daily Weather History Graph

Search for Another Location

Airport or City:

Trip Planner

Search our weather history database for the weather conditions in past years. The results will help you decide how hot, cold, wet, or windy it might be!

Date:

Astronomy

Oct. 06, 2013 Rise Set
Actual Time 7:06 AM MDT 6:43 PM MDT
Civil Twilight 6:40 AM MDT 7:08 PM MDT
Nautical Twilight 6:11 AM MDT 7:38 PM MDT
Astronomical Twilight 5:41 AM MDT 8:07 PM MDT
Moon 8:48 AM MDT (10/6) 7:50 PM MDT (10/6)
Length of Visible Light 12h 28m
Length of Day
11h 37m
Waxing Crescent, 4% of the Moon is Illuminated
Oct 6
Waxing Crescent
Oct 11
First Quarter
Oct 18
Full
Oct 26
Last Quarter
Nov 3
New

Hourly Weather History & Observations

Time (MDT) Temp. Windchill Dew Point Humidity Pressure Visibility Wind Dir Wind Speed Gust Speed Precip Events Conditions
12:15 AM 44.4 °F 38.6 °F 18.3 °F 35% 30.32 in 10.0 mi NNW 11.5 mph - N/A   Clear
12:35 AM 45.0 °F 39.3 °F 18.5 °F 35% 30.32 in 10.0 mi NNW 11.5 mph - N/A   Clear
12:55 AM 44.8 °F 39.0 °F 18.5 °F 35% 30.32 in 10.0 mi NW 11.5 mph - N/A   Clear
1:15 AM 42.4 °F 36.5 °F 18.7 °F 39% 30.33 in 10.0 mi NW 10.4 mph - N/A   Clear
1:35 AM 39.2 °F 33.0 °F 18.9 °F 44% 30.33 in 10.0 mi West 9.2 mph - N/A   Clear
1:55 AM 41.4 °F 36.2 °F 18.9 °F 41% 30.34 in 10.0 mi WNW 8.1 mph - N/A   Clear
2:15 AM 40.1 °F 34.1 °F 19.0 °F 43% 30.34 in 10.0 mi WNW 9.2 mph - N/A   Clear
2:35 AM 39.2 °F 32.5 °F 19.2 °F 45% 30.34 in 10.0 mi NW 10.4 mph - N/A   Clear
2:55 AM 41.2 °F 35.0 °F 18.9 °F 41% 30.33 in 10.0 mi NW 10.4 mph - N/A   Clear
3:15 AM 39.2 °F 32.0 °F 19.0 °F 44% 30.34 in 10.0 mi NNW 11.5 mph - N/A   Clear
3:35 AM 40.5 °F 32.8 °F 19.2 °F 43% 30.33 in 10.0 mi NNW 13.8 mph - N/A   Clear
3:55 AM 40.6 °F 33.4 °F 19.4 °F 43% 30.33 in 10.0 mi NW 12.7 mph - N/A   Clear
4:15 AM 40.1 °F 32.4 °F 19.4 °F 43% 30.33 in 10.0 mi NNW 13.8 mph - N/A   Clear
4:35 AM 41.5 °F 34.2 °F 19.4 °F 41% 30.33 in 10.0 mi NNW 13.8 mph - N/A   Clear
4:55 AM 39.7 °F 31.9 °F 19.4 °F 44% 30.33 in 10.0 mi NNW 13.8 mph - N/A   Clear
5:15 AM 41.4 °F 33.6 °F 19.4 °F 41% 30.33 in 10.0 mi NW 15.0 mph - N/A   Clear
5:35 AM 41.7 °F 35.6 °F 19.4 °F 41% 30.34 in 10.0 mi NW 10.4 mph 18.4 mph N/A   Clear
5:50 AM 41.0 °F 34.7 °F 19.4 °F 42% 30.34 in 10.0 mi NW 10.4 mph - N/A   Clear
6:50 AM 37.4 °F 33.8 °F 19.4 °F 48% 30.34 in 10.0 mi North 4.6 mph - N/A   Clear
7:50 AM 37.4 °F 33.8 °F 19.4 °F 48% 30.37 in 10.0 mi Variable 4.6 mph - N/A   Clear
8:50 AM 44.6 °F 42.2 °F 19.4 °F 37% 30.38 in 10.0 mi Variable 4.6 mph - N/A   Clear
9:50 AM 48.2 °F - 19.4 °F 32% 30.40 in 10.0 mi Variable 4.6 mph - N/A   Clear
10:50 AM 53.6 °F - 21.2 °F 28% 30.39 in 10.0 mi Variable 4.6 mph - N/A   Clear
11:50 AM 55.4 °F - 19.4 °F 25% 30.38 in - Calm Calm - N/A   Clear
12:50 PM 59.0 °F - 21.2 °F 23% 30.37 in 10.0 mi Variable 5.8 mph - N/A   Clear
1:50 PM 60.8 °F - 19.4 °F 20% 30.33 in 10.0 mi Calm Calm - N/A   Clear
2:50 PM 64.4 °F - 19.4 °F 18% 30.31 in 10.0 mi Calm Calm - N/A   Clear
3:50 PM 66.2 °F - 15.8 °F 14% 30.30 in 10.0 mi Calm Calm - N/A   Clear
4:50 PM 66.2 °F - 17.6 °F 15% 30.29 in 10.0 mi Calm Calm - N/A   Clear
5:50 PM 64.4 °F - 17.6 °F 16% 30.30 in 10.0 mi South 4.6 mph - N/A   Clear
6:50 PM 57.2 °F - 26.6 °F 31% 30.30 in 10.0 mi SSE 6.9 mph - N/A   Clear
7:50 PM 48.2 °F - 26.6 °F 43% 30.31 in 10.0 mi South 6.9 mph - N/A   Clear
8:50 PM 44.6 °F 41.4 °F 26.6 °F 49% 30.32 in 10.0 mi SSW 5.8 mph - N/A   Clear
9:50 PM 46.4 °F - 24.8 °F 43% 30.33 in 10.0 mi Calm Calm - N/A   Clear
10:15 PM 41.7 °F - 24.8 °F 51% 30.33 in 10.0 mi Calm Calm - N/A   Clear
10:35 PM 43.2 °F 41.5 °F 24.6 °F 48% 30.33 in 10.0 mi WSW 3.5 mph - N/A   Clear
10:55 PM 42.6 °F 40.9 °F 24.1 °F 48% 30.33 in 10.0 mi WSW 3.5 mph - N/A   Clear
11:15 PM 42.1 °F 38.4 °F 23.9 °F 49% 30.33 in 10.0 mi WSW 5.8 mph - N/A   Clear
11:35 PM 43.2 °F 40.5 °F 23.2 °F 45% 30.33 in 10.0 mi NW 4.6 mph - N/A   Clear
11:55 PM 43.7 °F 40.3 °F 23.0 °F 44% 30.33 in 10.0 mi NW 5.8 mph - N/A   Clear